Back to catalog

STARLINK-31797

AliveCommunicationsVLEO
NORAD 59634·PAYLOAD·🇺🇸 United States

Launched May 3, 2024 from Cape Canaveral Space Force Station

Loading…

Next Passes (next 24 hours)

TLE

FreshSource: CelesTrak SupGP

Epoch: Sep 15, 2026, 02:41 UTC

1 59634C 24082D   26258.11229167  .00035492  00000+0  12857-2 0  2580
2 59634  42.9998 149.9717 0001376 275.4820  46.3329 15.27555006    17

Track STARLINK-31797 in real time with AllMySat

Download on the App Store